| time (UTC) | temp F | wind direction | speed knots | gust knots | rain 1hr in | rain 24hr in | rain mn in | humidity % | barometer mb |
| 20260509043221 | 69 | 0.0 | 0.0 | 0.00 | 1.20 | 1.20 | 86 | 1013.4 | |
| 20260509042152 | 69 | 146 | 0.9 | 1.7 | 0.00 | 1.20 | 1.20 | 87 | 1013.5 |
| 20260509041201 | 69 | 142 | 5.2 | 7.8 | 0.00 | 1.20 | 1.20 | 86 | 1012.7 |
| 20260509040153 | 69 | 181 | 4.3 | 7.8 | 0.00 | 1.20 | 1.20 | 86 | 1012.8 |
| 20260509035201 | 71 | 146 | 6.1 | 8.7 | 0.00 | 1.20 | 1.20 | 81 | 1012.8 |
| 20260509034154 | 71 | 141 | 0.9 | 0.9 | 0.00 | 1.20 | 1.20 | 81 | 1014.1 |
| 20260509033201 | 70 | 158 | 0.9 | 1.7 | 0.00 | 1.20 | 1.20 | 80 | 1014.4 |
| 20260509032153 | 71 | 145 | 0.9 | 0.9 | 0.00 | 1.20 | 1.20 | 80 | 1014.1 |
| 20260509031201 | 71 | 0.0 | 0.0 | 0.00 | 1.20 | 1.20 | 79 | 1013.8 | |
| 20260509030153 | 71 | 123 | 0.0 | 0.9 | 0.00 | 1.20 | 1.20 | 79 | 1013.8 |
| 20260509025201 | 71 | 119 | 0.0 | 0.9 | 0.00 | 1.20 | 1.20 | 79 | 1013.8 |
| 20260509024153 | 71 | 116 | 0.9 | 0.9 | 0.00 | 1.20 | 1.20 | 78 | 1013.6 |
| 20260509023201 | 71 | 93 | 1.7 | 2.6 | 0.00 | 1.20 | 1.20 | 78 | 1013.2 |
| 20260509022153 | 71 | 94 | 2.6 | 4.3 | 0.00 | 1.20 | 1.20 | 77 | 1013.1 |
| 20260509020154 | 72 | 151 | 3.5 | 5.2 | 0.00 | 1.20 | 1.20 | 76 | 1012.7 |
| 20260509015201 | 72 | 157 | 2.6 | 4.3 | 0.00 | 1.20 | 1.20 | 76 | 1012.6 |
| 20260509014153 | 72 | 133 | 3.5 | 5.2 | 0.00 | 1.20 | 1.20 | 75 | 1012.4 |
| 20260509013202 | 72 | 149 | 2.6 | 6.1 | 0.00 | 1.20 | 1.20 | 74 | 1012.2 |
| 20260509012153 | 72 | 178 | 3.5 | 7.0 | 0.00 | 1.20 | 1.20 | 73 | 1012.3 |
| 20260509011201 | 73 | 160 | 3.5 | 5.2 | 0.00 | 1.20 | 1.20 | 73 | 1012.4 |
| 20260509010153 | 73 | 134 | 0.9 | 6.1 | 0.00 | 1.20 | 1.20 | 73 | 1012.2 |
| 20260509005201 | 73 | 0.0 | 0.0 | 0.77 | 1.20 | 1.20 | 72 | 1012.2 | |
| 20260509004153 | 73 | 0.0 | 0.0 | 0.77 | 1.20 | 1.20 | 71 | 1011.9 | |
| 20260509003201 | 74 | 115 | 1.7 | 4.3 | 0.77 | 1.20 | 1.20 | 70 | 1011.9 |
| 20260509002154 | 74 | 141 | 0.9 | 5.2 | 0.77 | 1.20 | 1.20 | 69 | 1011.7 |
| 20260509001201 | 74 | 0.0 | 0.0 | 0.77 | 1.20 | 1.20 | 69 | 1011.7 | |
| 20260509000154 | 75 | 143 | 5.2 | 7.0 | 0.77 | 1.20 | 1.20 | 68 | 1011.9 |
| 20260508235201 | 75 | 99 | 3.5 | 6.1 | 0.00 | 0.43 | 0.43 | 68 | 1012.1 |
| 20260508234153 | 76 | 101 | 4.3 | 7.0 | 0.00 | 0.43 | 0.43 | 66 | 1012.0 |
| 20260508233201 | 77 | 153 | 2.6 | 6.1 | 0.00 | 0.43 | 0.43 | 66 | 1012.2 |
| 20260508232153 | 77 | 146 | 3.5 | 5.2 | 0.00 | 0.43 | 0.43 | 66 | 1012.2 |
| 20260508231201 | 77 | 142 | 2.6 | 4.3 | 0.00 | 0.43 | 0.43 | 67 | 1012.3 |
| 20260508230154 | 77 | 157 | 4.3 | 5.2 | 0.00 | 0.43 | 0.43 | 66 | 1012.1 |
| 20260508225201 | 78 | 131 | 1.7 | 7.0 | 0.00 | 0.43 | 0.43 | 66 | 1012.3 |
| 20260508224213 | 79 | 0.0 | 0.0 | 0.00 | 0.43 | 0.43 | 63 | 1012.2 | |
| 20260508223202 | 79 | 194 | 3.5 | 6.1 | 0.00 | 0.43 | 0.43 | 63 | 1012.3 |
| 20260508222154 | 78 | 0.0 | 0.0 | 0.00 | 0.43 | 0.43 | 63 | 1012.3 | |
| 20260508221202 | 79 | 131 | 5.2 | 8.7 | 0.00 | 0.43 | 0.43 | 62 | 1012.1 |
| 20260508220153 | 78 | 160 | 0.9 | 4.3 | 0.00 | 0.43 | 0.43 | 62 | 1011.9 |
| 20260508215202 | 79 | 149 | 4.3 | 7.0 | 0.00 | 0.43 | 0.43 | 63 | 1012.1 |
| 20260508214154 | 78 | 133 | 3.5 | 7.8 | 0.00 | 0.43 | 0.43 | 62 | 1011.7 |
| 20260508213201 | 78 | 130 | 5.2 | 8.7 | 0.00 | 0.43 | 0.43 | 61 | 1012.1 |
| 20260508212153 | 78 | 153 | 2.6 | 4.3 | 0.00 | 0.43 | 0.43 | 62 | 1012.4 |
| 20260508211201 | 78 | 79 | 5.2 | 9.6 | 0.00 | 0.43 | 0.43 | 60 | 1012.6 |
| 20260508210154 | 77 | 161 | 4.3 | 7.0 | 0.00 | 0.43 | 0.43 | 63 | 1013.1 |
| 20260508205222 | 78 | 132 | 3.5 | 5.2 | 0.00 | 0.43 | 0.43 | 62 | 1013.2 |
| 20260508204153 | 78 | 116 | 2.6 | 6.1 | 0.00 | 0.43 | 0.43 | 62 | 1013.7 |
| 20260508203202 | 79 | 150 | 3.5 | 5.2 | 0.00 | 0.43 | 0.43 | 61 | 1013.7 |
| 20260508202154 | 79 | 169 | 2.6 | 6.1 | 0.00 | 0.43 | 0.43 | 61 | 1013.9 |
| 20260508201202 | 80 | 142 | 0.9 | 1.7 | 0.00 | 0.43 | 0.43 | 60 | 1013.9 |
| 20260508200153 | 79 | 116 | 2.6 | 5.2 | 0.00 | 0.43 | 0.43 | 59 | 1014.0 |
| 20260508195201 | 79 | 107 | 1.7 | 4.3 | 0.00 | 0.43 | 0.43 | 60 | 1014.2 |
| 20260508194154 | 80 | 140 | 4.3 | 7.8 | 0.00 | 0.43 | 0.43 | 57 | 1014.1 |
| 20260508193222 | 79 | 138 | 2.6 | 4.3 | 0.00 | 0.43 | 0.43 | 59 | 1014.3 |
| 20260508192154 | 78 | 134 | 2.6 | 7.0 | 0.00 | 0.43 | 0.43 | 60 | 1014.3 |
| 20260508191203 | 79 | 118 | 10.4 | 13.9 | 0.00 | 0.43 | 0.43 | 58 | 1014.5 |
| 20260508190153 | 77 | 135 | 5.2 | 7.8 | 0.00 | 0.43 | 0.43 | 60 | 1014.4 |
| 20260508185202 | 77 | 120 | 2.6 | 6.1 | 0.00 | 0.43 | 0.43 | 61 | 1014.5 |
| 20260508184153 | 75 | 114 | 5.2 | 7.0 | 0.00 | 0.43 | 0.43 | 62 | 1014.7 |
| 20260508183201 | 74 | 120 | 6.1 | 7.8 | 0.00 | 0.43 | 0.43 | 62 | 1014.9 |
| 20260508182154 | 74 | 0.0 | 0.0 | 0.00 | 0.43 | 0.43 | 62 | 1015.1 | |
| 20260508181222 | 77 | 131 | 0.0 | 1.7 | 0.00 | 0.43 | 0.43 | 61 | 1015.3 |
| 20260508180153 | 74 | 95 | 4.3 | 7.0 | 0.00 | 0.43 | 0.43 | 63 | 1015.5 |
| 20260508175201 | 75 | 127 | 0.9 | 5.2 | 0.00 | 0.43 | 0.43 | 61 | 1015.5 |
| 20260508174154 | 74 | 48 | 2.6 | 5.2 | 0.00 | 0.43 | 0.43 | 62 | 1015.7 |
| 20260508173202 | 73 | 92 | 6.1 | 7.8 | 0.00 | 0.43 | 0.43 | 63 | 1016.0 |
| 20260508172215 | 75 | 127 | 3.5 | 6.1 | 0.00 | 0.43 | 0.43 | 60 | 1016.2 |
| 20260508171202 | 74 | 118 | 2.6 | 4.3 | 0.00 | 0.43 | 0.43 | 62 | 1016.2 |
| 20260508170154 | 74 | 144 | 2.6 | 6.1 | 0.00 | 0.43 | 0.43 | 61 | 1016.6 |
| 20260508165202 | 73 | 138 | 1.7 | 1.7 | 0.00 | 0.43 | 0.43 | 63 | 1017.0 |
| 20260508164154 | 72 | 117 | 6.1 | 8.7 | 0.00 | 0.43 | 0.43 | 63 | 1016.9 |
| 20260508163202 | 72 | 129 | 6.1 | 7.8 | 0.00 | 0.43 | 0.43 | 64 | 1017.4 |
| 20260508162154 | 70 | 109 | 3.5 | 4.3 | 0.00 | 0.43 | 0.43 | 68 | 1017.3 |
| 20260508161203 | 70 | 147 | 7.0 | 9.6 | 0.00 | 0.43 | 0.43 | 66 | 1017.6 |
| 20260508160154 | 69 | 121 | 1.7 | 2.6 | 0.00 | 0.43 | 0.43 | 69 | 1017.5 |
| 20260508155202 | 69 | 128 | 2.6 | 4.3 | 0.00 | 0.43 | 0.43 | 70 | 1017.6 |
| 20260508154154 | 68 | 130 | 1.7 | 2.6 | 0.00 | 0.43 | 0.43 | 71 | 1017.9 |
| 20260508153202 | 69 | 138 | 3.5 | 6.1 | 0.00 | 0.43 | 0.43 | 69 | 1017.6 |
| 20260508152214 | 67 | 121 | 2.6 | 4.3 | 0.00 | 0.43 | 0.43 | 78 | 1017.6 |
| 20260508151202 | 66 | 113 | 3.5 | 4.3 | 0.00 | 0.43 | 0.43 | 78 | 1017.8 |
| 20260508150154 | 65 | 117 | 2.6 | 4.3 | 0.00 | 0.43 | 0.43 | 78 | 1017.8 |
| 20260508145202 | 65 | 98 | 1.7 | 2.6 | 0.00 | 0.43 | 0.43 | 79 | 1018.2 |
| 20260508144154 | 64 | 116 | 3.5 | 6.1 | 0.00 | 0.43 | 0.43 | 82 | 1017.9 |
| 20260508143202 | 65 | 138 | 2.6 | 5.2 | 0.00 | 0.43 | 0.43 | 83 | 1018.2 |
| 20260508142214 | 64 | 117 | 1.7 | 1.7 | 0.00 | 0.43 | 0.43 | 84 | 1018.3 |
| 20260508141202 | 64 | 106 | 3.5 | 4.3 | 0.00 | 0.43 | 0.43 | 83 | 1018.2 |
| 20260508140214 | 64 | 124 | 4.3 | 6.1 | 0.00 | 0.43 | 0.43 | 86 | 1018.0 |
| 20260508135202 | 62 | 0.0 | 0.0 | 0.00 | 0.43 | 0.43 | 91 | 1018.3 | |
| 20260508134154 | 62 | 0.0 | 0.0 | 0.00 | 0.43 | 0.43 | 91 | 1018.2 | |
| 20260508133203 | 62 | 98 | 1.7 | 2.6 | 0.00 | 0.43 | 0.43 | 92 | 1018.2 |
| 20260508132154 | 61 | 119 | 3.5 | 5.2 | 0.00 | 0.43 | 0.43 | 93 | 1018.0 |
| 20260508131202 | 60 | 115 | 2.6 | 2.6 | 0.00 | 0.43 | 0.43 | 94 | 1017.8 |
| 20260508130154 | 60 | 131 | 0.9 | 1.7 | 0.00 | 0.43 | 0.43 | 94 | 1018.5 |
| 20260508125203 | 60 | 123 | 0.9 | 0.9 | 0.00 | 0.43 | 0.43 | 94 | 1018.6 |
| 20260508124154 | 60 | 151 | 1.7 | 1.7 | 0.00 | 0.43 | 0.43 | 94 | 1018.9 |
| 20260508123203 | 60 | 115 | 0.9 | 1.7 | 0.00 | 0.43 | 0.43 | 94 | 1018.3 |
| 20260508122154 | 60 | 123 | 1.7 | 2.6 | 0.06 | 0.43 | 0.43 | 94 | 1018.5 |
| 20260508121203 | 60 | 140 | 1.7 | 1.7 | 0.12 | 0.43 | 0.43 | 94 | 1018.3 |
| 20260508120154 | 60 | 147 | 2.6 | 4.3 | 0.17 | 0.43 | 0.43 | 95 | 1018.4 |
| 20260508115202 | 59 | 126 | 1.7 | 2.6 | 0.19 | 0.43 | 0.43 | 94 | 1018.3 |
| 20260508114155 | 59 | 149 | 0.9 | 0.9 | 0.34 | 0.43 | 0.43 | 94 | 1018.3 |
| 20260508113202 | 59 | 136 | 0.0 | 0.9 | 0.35 | 0.43 | 0.43 | 94 | 1018.3 |
| 20260508112155 | 59 | 107 | 3.5 | 4.3 | 0.32 | 0.37 | 0.37 | 93 | 1017.8 |
| 20260508111223 | 59 | 105 | 3.5 | 4.3 | 0.26 | 0.31 | 0.31 | 92 | 1018.2 |
| 20260508110214 | 59 | 131 | 0.0 | 0.9 | 0.20 | 0.26 | 0.26 | 91 | 1018.7 |
| 20260508105203 | 60 | 120 | 0.9 | 1.7 | 0.18 | 0.24 | 0.24 | 92 | 1019.1 |
| 20260508104155 | 60 | 194 | 3.5 | 4.3 | 0.03 | 0.09 | 0.09 | 92 | 1018.7 |
| 20260508103223 | 60 | 0.0 | 0.0 | 0.03 | 0.08 | 0.08 | 91 | 1018.2 | |
| 20260508102154 | 60 | 152 | 4.3 | 7.0 | 0.01 | 0.05 | 0.05 | 91 | 1018.0 |
| 20260508101202 | 60 | 130 | 0.9 | 1.7 | 0.01 | 0.05 | 0.05 | 92 | 1017.3 |
| 20260508100154 | 59 | 136 | 1.7 | 4.3 | 0.01 | 0.05 | 0.05 | 93 | 1017.2 |
| 20260508095242 | 59 | 143 | 0.9 | 0.9 | 0.01 | 0.05 | 0.05 | 93 | 1017.3 |
| 20260508094154 | 59 | 84 | 3.5 | 4.3 | 0.01 | 0.05 | 0.05 | 92 | 1017.2 |
| 20260508093202 | 59 | 0.0 | 0.0 | 0.00 | 0.04 | 0.04 | 92 | 1017.6 | |
| 20260508092155 | 59 | 121 | 0.0 | 0.9 | 0.00 | 0.04 | 0.04 | 92 | 1017.5 |
| 20260508091202 | 59 | 97 | 1.7 | 1.7 | 0.01 | 0.04 | 0.04 | 91 | 1017.7 |
| 20260508090155 | 59 | 160 | 3.5 | 5.2 | 0.04 | 0.04 | 0.04 | 92 | 1018.2 |
| 20260508085202 | 59 | 131 | 0.9 | 0.9 | 0.04 | 0.04 | 0.04 | 91 | 1018.0 |
| 20260508084154 | 60 | 125 | 0.9 | 0.9 | 0.04 | 0.04 | 0.04 | 90 | 1017.7 |
| 20260508083213 | 60 | 162 | 1.7 | 2.6 | 0.04 | 0.04 | 0.04 | 91 | 1017.7 |
| 20260508082132 | 60 | 136 | 0.9 | 1.7 | 0.04 | 0.04 | 0.04 | 90 | 1018.0 |
| 20260508081151 | 61 | 131 | 6.1 | 7.8 | 0.02 | 0.02 | 0.02 | 86 | 1018.3 |
| 20260508080107 | 61 | 182 | 2.6 | 4.3 | 0.00 | 0.00 | 0.00 | 82 | 1019.1 |
| 20260508075115 | 60 | 208 | 3.5 | 4.3 | 0.00 | 0.00 | 0.00 | 83 | 1019.3 |
| 20260508074127 | 60 | 0.0 | 0.0 | 0.00 | 0.00 | 0.00 | 85 | 1018.8 | |
| 20260508073115 | 60 | 0.0 | 0.0 | 0.00 | 0.00 | 0.00 | 84 | 1018.8 | |
| 20260508072106 | 58 | 116 | 2.6 | 2.6 | 0.00 | 0.00 | 0.00 | 89 | 1018.5 |
| 20260508071115 | 58 | 0.0 | 0.0 | 0.00 | 0.00 | 0.00 | 87 | 1018.8 | |
| 20260508070106 | 59 | 108 | 1.7 | 1.7 | 0.00 | 0.00 | 0.00 | 88 | 1018.8 |
| 20260508065135 | 59 | 0.0 | 0.0 | 0.00 | 0.00 | 0.00 | 87 | 1019.4 | |
| 20260508064107 | 60 | 160 | 1.7 | 1.7 | 0.00 | 0.00 | 0.00 | 84 | 1019.5 |
| 20260508063155 | 59 | 143 | 0.9 | 0.9 | 0.00 | 0.00 | 0.00 | 85 | 1019.4 |
| 20260508062107 | 59 | 0.0 | 0.0 | 0.00 | 0.00 | 0.00 | 85 | 1019.6 | |
| 20260508061135 | 60 | 0.0 | 0.0 | 0.00 | 0.00 | 0.00 | 82 | 1019.2 | |
| 20260508060107 | 60 | 0.0 | 0.0 | 0.00 | 0.00 | 0.00 | 81 | 1019.3 | |
| 20260508055114 | 61 | 102 | 1.7 | 1.7 | 0.00 | 0.00 | 0.00 | 77 | 1019.0 |
| 20260508054107 | 61 | 125 | 0.9 | 1.7 | 0.00 | 0.00 | 0.00 | 79 | 1019.3 |
| 20260508053114 | 59 | 0.0 | 0.0 | 0.00 | 0.00 | 0.00 | 83 | 1019.6 | |
| 20260508052107 | 60 | 128 | 0.0 | 0.9 | 0.00 | 0.00 | 0.00 | 84 | 1019.6 |
| 20260508051115 | 61 | 0.0 | 0.0 | 0.00 | 0.00 | 0.00 | 79 | 1019.6 | |
| 20260508050107 | 61 | 0.0 | 0.0 | 0.00 | 0.00 | 0.00 | 80 | 1019.3 | |
| 20260508044107 | 61 | 0.0 | 0.0 | 0.00 | 0.00 | 0.00 | 82 | 1019.1 |